STARLINK-37148, 68310

Orbit data source: Space-Track

STARLINK-37148, 68310 is a payload satellite owned by SpaceX/Seattle (US) in SSO that was launched on Fri, 20 Mar 2026 UTC via an FALCON 9 launch vehicle from the Air Force Western Test Range (AFWTR). Payload-class satellites include a variety of spacecraft equipped with specific instruments for various scientific and technological missions. These include communications satellites like Starlink; space stations such as the ISS; scientific satellites like the Hubble; Earth observation satellites from companies like Planet Labs, Umbra, and HawkEye 360; GPS; miniature CubeSats for education and research; and military/defense satellites.

Loading next visibility...
Identifier
68310, 2026-057S
Orbit
SSO
Country
Flag of USUS
Related business
Manufacturer
SpaceX/Seattle
Mission
Operational spacecraft
Bus & Motor
STARLINK V2MO, Unknown motor
Mass
575 kg wet, ~530 kg dry
Launch date (UTC)
2026-03-20 (3 months ago)
Launch vehicle
FALCON 9
Launch site
Air Force Western Test Range (AFWTR)
Object type
Payload
Rocket body
Debris
Shape & HBR
Unknown shape, 17.7 m
Radar Cross Section
Large (>1 m²)

Expand to show TLE details & history
Last TLE update: 12 hours ago

TLE from 12 hours ago
0 STARLINK-37148
1 68310U 26057S   26171.33306897  .00013153  00000-0  40872-3 0  9991
2 68310  97.2853 298.1112 0001773  80.0985 280.0458 15.33468807 14395
Epoch: 2026-06-20T07:59Z
TLE epoch observation values (Epoch: 2026-06-20T07:59:37.159Z)
Latitude
0.00002°
Longitude
-90.34283°
Altitude
468.373 km
Speed
7.632 km/s
True Right ascension
19h 52m 26s
True Declination
0° 00' 00"
Sunlit
Object was in full shadow at epoch
Visualization orbit readout
Latitude
Unknown
Longitude
Unknown
Altitude
Unknown
Speed
Unknown
Apparent Right ascension
Unknown
Apparent Declination
Unknown
Sunlit
N/A
Visualization observer readout
Local Sidereal Time
07:21:10
Azimuth
Unknown
Elevation
Unknown
Doppler factor
Unknown
Orbital elements
Apogee altitude
463.628 km
Perigee altitude
461.202 km
Semi-major axis
6,840.552 km
Eccentricity
0.00018
Inclination
97.2853°
RAAN
298.1112°
Arg. of periapsis
80.0985°
True anomaly
280.02579°
Mean anomaly
280.0458°
Eccentric anomaly
280.0358°
Mean motion
3.83625 °/min
Orbital period
93.84 mins
BSTAR
0.00040872
Loading maneuver chart data...
Computing Atmospheric mass density...
Loading historical data...
Loading historical data...
Loading historical data...
Loading historical data...
Loading historical data...
Loading historical data...
Loading historical data...

Documentation

Showing up to 5 results
|